Terminal Aerodrome Forecast
Issued by NWS Twin Cities, MN

Home | Current Version | Previous Version | Text Only | Print | Product List | Glossary Off
Versions: 1 2 3 4 5 6 7 8 9 10 11 12 13 14 15 16 17 18 19

000
FTUS43 KMPX 181500 AAB
TAFSTC
TAF AMD
KSTC 181548Z 1816/1912 VRB03KT P6SM -SN OVC015
      TEMPO 1816/1818 2SM -SN
     FM181800 15004KT P6SM BKN025 BKN090
     FM190600 17003KT P6SM OVC040=

USA.gov is the U.S. government's official web portal to all federal, state and local government web resources and services.